Location: Auckland
(36.8670°S, 174.7670°E)
Time: 21:25:38
(UTC+12:00)

Courier 1B Rocket - Pass Details

Date: 22 July 2019
Orbit: 920 x 1202 km, 28.3° (Epoch: 19 August)

Event Time Altitude Azimuth Distance (km) Brightness Sun altitude
Rises 08:46:08 0° 275° (W) 3,954 7.7 12.6°
Reaches altitude 10° 08:49:25 10° 286° (WNW) 2,946 7.2 13.1°
Maximum altitude 08:55:19 28° 341° (NNW) 1,860 6.9 14.0°
Drops below altitude 10° 09:00:52 10° 37° (NE) 2,763 9.5 14.9°
Sets 09:03:51 0° 48° (NE) 3,667 9.9 15.3°
